Time,TemperatureF,DewpointF,PressureIn,WindDirection,WindDirectionDegrees,WindSpeedMPH,WindSpeedGustMPH,Humidity,HourlyPrecipIn,Conditions,Clouds,dailyrainin,SoftwareType,DateUTC
2013-01-03 00:06:00,28.0,25.0,30.27,WNW,296,0.0,1.0,87,0.00,,,0.00,weatherlink.com 1.10,2013-01-03 06:06:00,
2013-01-03 00:21:00,27.5,24.0,30.26,WNW,296,0.0,0.0,87,0.00,,,0.00,weatherlink.com 1.10,2013-01-03 06:21:00,
2013-01-03 00:36:00,27.3,25.0,30.26,WNW,296,0.0,0.0,89,0.00,,,0.00,weatherlink.com 1.10,2013-01-03 06:36:00,
2013-01-03 00:51:00,27.8,25.0,30.26,WNW,296,0.0,0.0,89,0.00,,,0.00,weatherlink.com 1.10,2013-01-03 06:51:00,
2013-01-03 01:06:00,28.4,26.0,30.26,WNW,296,0.0,1.0,91,0.00,,,0.00,weatherlink.com 1.10,2013-01-03 07:06:00,
2013-01-03 01:22:00,29.0,27.0,30.26,West,274,2.0,3.0,90,0.00,,,0.00,weatherlink.com 1.10,2013-01-03 07:22:00,
2013-01-03 01:37:00,28.7,26.0,30.26,West,281,1.0,3.0,89,0.00,,,0.00,weatherlink.com 1.10,2013-01-03 07:37:00,
2013-01-03 01:52:00,29.4,27.0,30.26,West,267,3.0,5.0,90,0.00,,,0.00,weatherlink.com 1.10,2013-01-03 07:52:00,
2013-01-03 02:07:00,30.4,27.0,30.27,West,276,4.0,7.0,88,0.00,,,0.00,weatherlink.com 1.10,2013-01-03 08:07:00,
2013-01-03 02:22:00,30.7,27.0,30.27,West,277,4.0,10.0,87,0.00,,,0.00,weatherlink.com 1.10,2013-01-03 08:22:00,
2013-01-03 02:37:00,30.9,28.0,30.27,West,279,7.0,10.0,87,0.00,,,0.00,weatherlink.com 1.10,2013-01-03 08:37:00,
2013-01-03 02:52:00,30.9,28.0,30.28,WNW,283,8.0,10.0,87,0.00,,,0.00,weatherlink.com 1.10,2013-01-03 08:52:00,
2013-01-03 03:07:00,30.9,27.0,30.28,WNW,292,6.0,12.0,86,0.00,,,0.00,weatherlink.com 1.10,2013-01-03 09:07:00,
2013-01-03 03:22:00,30.8,27.0,30.28,WNW,283,6.0,9.0,86,0.00,,,0.00,weatherlink.com 1.10,2013-01-03 09:22:00,
2013-01-03 03:37:00,30.8,27.0,30.28,WNW,288,6.0,11.0,86,0.00,,,0.00,weatherlink.com 1.10,2013-01-03 09:37:00,
2013-01-03 03:52:00,30.7,27.0,30.28,WNW,284,8.0,10.0,86,0.00,,,0.00,weatherlink.com 1.10,2013-01-03 09:52:00,
2013-01-03 04:07:00,30.7,27.0,30.28,WNW,288,7.0,11.0,86,0.00,,,0.00,weatherlink.com 1.10,2013-01-03 10:07:00,
2013-01-03 04:22:00,30.8,27.0,30.28,WNW,290,7.0,11.0,86,0.00,,,0.00,weatherlink.com 1.10,2013-01-03 10:22:00,
2013-01-03 04:37:00,30.8,27.0,30.29,WNW,295,5.0,11.0,86,0.00,,,0.00,weatherlink.com 1.10,2013-01-03 10:37:00,
2013-01-03 04:52:00,30.9,27.0,30.30,WSW,254,5.0,9.0,86,0.00,,,0.00,weatherlink.com 1.10,2013-01-03 10:52:00,
2013-01-03 05:07:00,30.9,27.0,30.30,WNW,292,7.0,12.0,86,0.00,,,0.00,weatherlink.com 1.10,2013-01-03 11:07:00,
2013-01-03 05:22:00,30.1,26.0,30.31,NW,310,10.0,17.0,85,0.00,,,0.00,weatherlink.com 1.10,2013-01-03 11:22:00,
2013-01-03 05:37:00,29.5,26.0,30.31,NW,320,9.0,13.0,86,0.00,,,0.00,weatherlink.com 1.10,2013-01-03 11:37:00,
2013-01-03 05:52:00,27.6,23.0,30.32,North,5,13.0,16.0,84,0.00,,,0.00,weatherlink.com 1.10,2013-01-03 11:52:00,
2013-01-03 06:07:00,24.7,21.0,30.34,North,5,12.0,13.0,85,0.00,,,0.00,weatherlink.com 1.10,2013-01-03 12:07:00,
2013-01-03 06:22:00,24.0,20.0,30.34,North,5,12.0,14.0,85,0.00,,,0.00,weatherlink.com 1.10,2013-01-03 12:22:00,
2013-01-03 06:37:00,23.4,20.0,30.35,NNW,348,11.0,13.0,86,0.00,,,0.00,weatherlink.com 1.10,2013-01-03 12:37:00,
2013-01-03 06:52:00,24.0,20.0,30.35,NW,317,15.0,15.0,86,0.00,,,0.00,weatherlink.com 1.10,2013-01-03 12:52:00,
2013-01-03 07:07:00,23.7,20.0,30.36,NNW,328,17.0,17.0,84,0.00,,,0.00,weatherlink.com 1.10,2013-01-03 13:07:00,
2013-01-03 07:22:00,22.7,19.0,30.37,NNW,327,15.0,20.0,84,0.00,,,0.00,weatherlink.com 1.10,2013-01-03 13:22:00,
2013-01-03 07:38:00,21.8,18.0,30.38,NW,315,15.0,17.0,84,0.00,,,0.00,weatherlink.com 1.10,2013-01-03 13:38:00,
2013-01-03 07:53:00,21.5,17.0,30.39,NW,326,10.0,15.0,84,0.00,,,0.00,weatherlink.com 1.10,2013-01-03 13:53:00,
2013-01-03 08:08:00,21.2,17.0,30.39,NNW,327,13.0,15.0,84,0.00,,,0.00,weatherlink.com 1.10,2013-01-03 14:08:00,
2013-01-03 08:23:00,20.3,16.0,30.40,NW,318,13.0,15.0,83,0.00,,,0.00,weatherlink.com 1.10,2013-01-03 14:23:00,
2013-01-03 08:38:00,18.2,14.0,30.41,WNW,287,13.0,16.0,82,0.00,,,0.00,weatherlink.com 1.10,2013-01-03 14:38:00,
2013-01-03 08:53:00,16.5,11.0,30.42,WNW,290,18.0,21.0,79,0.00,,,0.00,weatherlink.com 1.10,2013-01-03 14:53:00,
2013-01-03 09:08:00,15.4,10.0,30.43,WNW,298,13.0,20.0,80,0.00,,,0.00,weatherlink.com 1.10,2013-01-03 15:08:00,
2013-01-03 09:23:00,14.8,10.0,30.43,WNW,294,16.0,18.0,80,0.00,,,0.00,weatherlink.com 1.10,2013-01-03 15:23:00,
2013-01-03 09:38:00,14.6,10.0,30.44,WNW,303,12.0,16.0,80,0.00,,,0.00,weatherlink.com 1.10,2013-01-03 15:38:00,
2013-01-03 09:53:00,14.6,10.0,30.44,WNW,296,8.0,18.0,80,0.00,,,0.00,weatherlink.com 1.10,2013-01-03 15:53:00,
2013-01-03 10:08:00,14.6,9.0,30.45,NW,304,17.0,18.0,79,0.00,,,0.00,weatherlink.com 1.10,2013-01-03 16:08:00,
2013-01-03 10:23:00,14.7,9.0,30.45,West,277,10.0,16.0,79,0.00,,,0.00,weatherlink.com 1.10,2013-01-03 16:23:00,
2013-01-03 10:38:00,14.8,9.0,30.46,WNW,292,12.0,19.0,79,0.00,,,0.00,weatherlink.com 1.10,2013-01-03 16:38:00,
2013-01-03 10:53:00,14.7,10.0,30.46,WNW,291,13.0,17.0,80,0.00,,,0.00,weatherlink.com 1.10,2013-01-03 16:53:00,
2013-01-03 11:08:00,14.6,9.0,30.46,WNW,285,13.0,17.0,79,0.00,,,0.00,weatherlink.com 1.10,2013-01-03 17:08:00,
2013-01-03 11:23:00,14.6,9.0,30.46,WNW,294,15.0,18.0,79,0.00,,,0.00,weatherlink.com 1.10,2013-01-03 17:23:00,
2013-01-03 11:39:00,14.6,9.0,30.46,WNW,282,12.0,18.0,79,0.00,,,0.00,weatherlink.com 1.10,2013-01-03 17:39:00,
2013-01-03 11:54:00,14.8,9.0,30.46,WNW,301,13.0,19.0,79,0.00,,,0.00,weatherlink.com 1.10,2013-01-03 17:54:00,
2013-01-03 12:09:00,15.0,10.0,30.45,WNW,300,12.0,18.0,79,0.00,,,0.00,weatherlink.com 1.10,2013-01-03 18:09:00,
2013-01-03 12:24:00,15.4,10.0,30.45,WNW,292,11.0,14.0,78,0.00,,,0.00,weatherlink.com 1.10,2013-01-03 18:24:00,
2013-01-03 12:39:00,15.6,10.0,30.44,WNW,294,12.0,16.0,78,0.00,,,0.00,weatherlink.com 1.10,2013-01-03 18:39:00,
2013-01-03 12:54:00,15.8,10.0,30.44,WNW,298,10.0,15.0,79,0.00,,,0.00,weatherlink.com 1.10,2013-01-03 18:54:00,
2013-01-03 13:54:00,16.4,11.0,30.43,WNW,295,14.0,14.0,79,0.00,,,0.00,weatherlink.com 1.10,2013-01-03 19:54:00,
2013-01-03 14:09:00,16.5,11.0,30.44,WNW,299,12.0,15.0,78,0.00,,,0.00,weatherlink.com 1.10,2013-01-03 20:09:00,
2013-01-03 14:24:00,16.8,11.0,30.44,WNW,300,8.0,13.0,79,0.00,,,0.00,weatherlink.com 1.10,2013-01-03 20:24:00,
2013-01-03 14:39:00,16.9,11.0,30.44,WNW,293,7.0,12.0,77,0.00,,,0.00,weatherlink.com 1.10,2013-01-03 20:39:00,
2013-01-03 14:55:00,16.9,11.0,30.45,WNW,284,9.0,12.0,77,0.00,,,0.00,weatherlink.com 1.10,2013-01-03 20:55:00,
2013-01-03 15:10:00,17.0,11.0,30.45,WNW,295,6.0,11.0,77,0.00,,,0.00,weatherlink.com 1.10,2013-01-03 21:10:00,
2013-01-03 15:25:00,16.8,11.0,30.46,WNW,290,5.0,11.0,78,0.00,,,0.00,weatherlink.com 1.10,2013-01-03 21:25:00,
2013-01-03 15:40:00,16.6,11.0,30.46,WNW,292,4.0,8.0,78,0.00,,,0.00,weatherlink.com 1.10,2013-01-03 21:40:00,
2013-01-03 15:55:00,16.1,10.0,30.46,WNW,300,4.0,5.0,78,0.00,,,0.00,weatherlink.com 1.10,2013-01-03 21:55:00,
2013-01-03 16:10:00,15.3,10.0,30.46,WNW,283,2.0,5.0,79,0.00,,,0.00,weatherlink.com 1.10,2013-01-03 22:10:00,
2013-01-03 16:25:00,16.8,11.0,30.46,West,259,5.0,8.0,78,0.00,,,0.00,weatherlink.com 1.10,2013-01-03 22:25:00,
2013-01-03 16:40:00,16.2,10.0,30.46,West,280,4.0,8.0,77,0.00,,,0.00,weatherlink.com 1.10,2013-01-03 22:40:00,
2013-01-03 16:55:00,15.5,10.0,30.47,West,267,7.0,7.0,79,0.00,,,0.00,weatherlink.com 1.10,2013-01-03 22:55:00,
2013-01-03 17:10:00,15.1,10.0,30.46,West,267,5.0,5.0,80,0.00,,,0.00,weatherlink.com 1.10,2013-01-03 23:10:00,
2013-01-03 17:25:00,14.5,9.0,30.47,West,279,1.0,3.0,80,0.00,,,0.00,weatherlink.com 1.10,2013-01-03 23:25:00,
2013-01-03 17:40:00,12.9,7.0,30.47,West,267,0.0,3.0,78,0.00,,,0.00,weatherlink.com 1.10,2013-01-03 23:40:00,
2013-01-03 17:55:00,10.5,5.0,30.47,WNW,292,0.0,1.0,79,0.00,,,0.00,weatherlink.com 1.10,2013-01-03 23:55:00,
2013-01-03 18:10:00,9.6,5.0,30.47,WNW,292,0.0,1.0,82,0.00,,,0.00,weatherlink.com 1.10,2013-01-04 00:10:00,
2013-01-03 18:26:00,8.9,5.0,30.47,WNW,292,0.0,0.0,83,0.00,,,0.00,weatherlink.com 1.10,2013-01-04 00:26:00,
2013-01-03 18:56:00,6.8,4.0,30.46,WNW,292,0.0,0.0,86,0.00,,,0.00,weatherlink.com 1.10,2013-01-04 00:56:00,
2013-01-03 19:11:00,7.2,4.0,30.46,WNW,292,0.0,0.0,86,0.00,,,0.00,weatherlink.com 1.10,2013-01-04 01:11:00,
2013-01-03 19:26:00,7.2,4.0,30.46,WNW,292,0.0,0.0,86,0.00,,,0.00,weatherlink.com 1.10,2013-01-04 01:26:00,
2013-01-03 19:41:00,6.5,3.0,30.46,WNW,292,0.0,0.0,85,0.00,,,0.00,weatherlink.com 1.10,2013-01-04 01:41:00,
2013-01-03 19:56:00,7.0,4.0,30.45,WNW,291,0.0,0.0,86,0.00,,,0.00,weatherlink.com 1.10,2013-01-04 01:56:00,
2013-01-03 20:11:00,5.8,2.0,30.45,WNW,291,0.0,0.0,83,0.00,,,0.00,weatherlink.com 1.10,2013-01-04 02:11:00,
2013-01-03 20:26:00,5.1,2.0,30.44,WNW,291,0.0,0.0,85,0.00,,,0.00,weatherlink.com 1.10,2013-01-04 02:26:00,
2013-01-03 20:42:00,4.9,1.0,30.44,WNW,291,0.0,0.0,85,0.00,,,0.00,weatherlink.com 1.10,2013-01-04 02:42:00,
2013-01-03 20:57:00,4.5,1.0,30.43,WNW,291,1.0,1.0,86,0.00,,,0.00,weatherlink.com 1.10,2013-01-04 02:57:00,
2013-01-03 21:12:00,5.5,3.0,30.43,WNW,291,0.0,0.0,87,0.00,,,0.00,weatherlink.com 1.10,2013-01-04 03:12:00,
2013-01-03 21:27:00,5.2,2.0,30.43,WNW,291,0.0,0.0,86,0.00,,,0.00,weatherlink.com 1.10,2013-01-04 03:27:00,
2013-01-03 21:42:00,4.8,2.0,30.43,WNW,291,0.0,1.0,86,0.00,,,0.00,weatherlink.com 1.10,2013-01-04 03:42:00,
2013-01-03 21:57:00,4.7,1.0,30.43,WNW,291,0.0,1.0,85,0.00,,,0.00,weatherlink.com 1.10,2013-01-04 03:57:00,
2013-01-03 22:12:00,4.8,2.0,30.42,WNW,291,0.0,0.0,88,0.00,,,0.00,weatherlink.com 1.10,2013-01-04 04:12:00,
2013-01-03 22:27:00,6.2,3.0,30.42,WNW,291,0.0,0.0,88,0.00,,,0.00,weatherlink.com 1.10,2013-01-04 04:27:00,
2013-01-03 22:42:00,7.0,5.0,30.42,SSW,202,2.0,2.0,89,0.00,,,0.00,weatherlink.com 1.10,2013-01-04 04:42:00,
2013-01-03 22:57:00,9.2,7.0,30.42,SSE,157,1.0,2.0,90,0.00,,,0.00,weatherlink.com 1.10,2013-01-04 04:57:00,
2013-01-03 23:27:00,9.9,7.0,30.41,South,169,0.0,1.0,88,0.00,,,0.00,weatherlink.com 1.10,2013-01-04 05:27:00,
2013-01-03 23:42:00,8.4,5.0,30.41,South,169,0.0,1.0,85,0.00,,,0.00,weatherlink.com 1.10,2013-01-04 05:42:00,
2013-01-03 23:57:00,8.9,6.0,30.40,SE,136,1.0,3.0,88,0.00,,,0.00,weatherlink.com 1.10,2013-01-04 05:57:00,